[[{"header":{"parameterUnit":"m.s-1","parameterCategory":1,"la1":30.2991,"la2":30.254,"lo1":-89.0895,"lo2":-89.0444,"dy":0.0017,"dx":0.0017,"nx":28,"ny":28,"refTime":"2024-06-26T09:00:00:Z","depth":0,"parameterNumber":2,"parameterNumberName":"U-component_of_WINDS"},"data":[0,0,0,0,0,0,0,0,0,0,0,0,0,0,0,0,0,0,0,0,0,0,0,0,0,0,0,0,0,0,0,0,0,0,0,0,0,0,0,0,0,0,0,0,0,0,0,0,0,0,0,0,0,0,0,0,0,0,6.4199,6.4201,0,6.4335,6.4336,6.4338,6.4248,6.4244,6.424,6.4236,6.4375,6.4383,6.439,0,0,0,0,0,0,0,0,0,0,0,0,0,6.3863,6.3869,6.4199,6.4201,6.4203,6.4334,6.4336,6.4338,6.4249,6.4243,6.4238,6.4234,6.4373,6.4382,6.4391,0,0,0,0,0,0,0,0,0,0,0,0,0,6.4005,6.3872,6.4199,6.4174,6.4173,6.4334,6.4336,6.4339,6.425,6.4243,6.4237,6.4231,6.437,6.4381,6.4392,6.4586,0,0,6.4427,6.4432,0,0,0,0,0,0,0,0,6.3997,6.4017,6.4176,6.4176,6.4175,6.4268,6.4269,6.4422,6.4251,6.4221,6.4236,6.4228,6.4345,6.4358,6.4397,6.4592,6.4598,6.4428,6.4435,6.444,6.4443,0,0,0,0,0,0,0,6.3987,6.4011,6.4253,6.4178,6.4178,6.4155,6.4169,6.4297,6.4316,6.4223,6.4217,6.4234,6.4343,6.4386,6.4399,6.46,6.4428,6.4438,6.4445,6.4449,6.4958,6.4965,0,0,0,0,0,0,6.3979,6.4003,6.4248,6.4257,6.4069,6.4167,6.4181,6.4244,6.4314,6.4319,6.4239,6.4229,6.437,6.4386,6.4404,6.4632,6.444,6.445,6.4457,6.4951,6.496,6.4967,0,0,0,0,0,0,6.3972,6.4002,6.4243,6.4128,6.4157,6.4179,6.425,6.425,6.4293,6.4326,6.4329,6.4279,6.4365,6.4388,6.454,6.4636,6.4455,6.4466,6.4944,6.4954,6.4963,6.5093,0,0,0,0,0,0,6.3963,6.4,6.4074,6.4131,6.4164,6.4378,6.4256,6.4257,6.4312,6.4301,6.4365,6.4369,6.4362,6.4524,6.4552,6.4648,6.4474,6.4935,6.4948,6.496,6.508,6.5106,6.5128,0,0,0,0,0,6.3951,6.4106,6.4079,6.4109,6.4257,6.4384,6.4402,6.4391,6.4321,6.4395,6.4416,6.4367,6.4622,6.454,6.4571,6.4672,6.4929,6.4944,6.4959,6.5069,6.5101,6.5128,0,0,0,0,0,0,6.4062,6.4113,6.4083,6.4261,6.4318,6.4368,6.4461,6.4426,6.4505,6.449,6.4473,6.4488,6.4647,6.4675,6.4584,6.4862,6.4764,6.4786,6.4837,6.4868,6.4891,6.488,6.4484,0,0,0,0,0,6.4107,6.4205,6.4245,6.4398,6.4428,6.444,6.4495,6.4481,6.454,6.4564,6.4596,6.4656,6.4748,6.481,6.4898,6.5084,6.5095,6.5169,6.5193,6.5213,6.5231,6.5329,6.5361,6.5017,6.5016,6.5016,0,0,6.4201,6.4241,6.4305,6.4421,6.4464,6.4565,6.4461,6.4574,6.4649,6.4581,6.4726,6.4752,6.4817,6.4986,6.5063,6.5015,6.5329,6.5232,6.5247,6.5255,6.5348,6.538,6.5409,6.5027,6.5025,6.5023,0,0,6.4423,6.4465,6.4595,6.464,6.4705,6.4712,6.4743,6.4798,6.4812,6.4957,6.4908,6.4997,6.5158,6.5205,6.525,6.5488,6.5446,6.5518,6.5643,6.5739,6.5766,6.5789,6.5872,6.5902,6.5536,6.5537,6.5537,0,6.4531,6.4682,6.4667,6.4782,6.4834,6.4777,6.4908,6.4952,6.5044,6.508,6.5025,6.5224,6.5264,6.5442,6.55,6.554,6.5573,6.5509,6.5763,6.5787,6.5809,6.5887,6.5918,6.5545,6.5544,6.5543,6.5542,0,6.4811,6.4916,6.5014,6.5102,6.5165,6.5288,6.529,6.5356,6.5336,6.5348,6.5495,6.5541,6.5635,6.5677,6.566,6.5852,6.582,6.5765,6.5666,6.585,6.5923,6.5953,6.5556,6.5554,6.5551,6.5549,0,0,6.5107,6.5183,6.5219,6.5256,6.5324,6.5405,6.5525,6.5616,6.5671,6.5736,6.5834,6.5971,6.5919,6.5971,6.5958,6.6042,6.6224,6.5976,6.5977,6.6018,6.6436,6.6475,6.651,6.6197,6.6203,6.6207,6.6429,0,6.533,6.5538,6.5527,6.5721,6.5817,6.5763,6.5867,6.5919,6.5933,6.6016,6.6032,6.6128,6.6054,6.6084,6.6165,6.6185,6.6307,6.6169,6.6287,6.6291,6.6269,6.6548,6.6591,6.6798,6.6458,6.6463,6.6466,0,6.5619,6.5692,6.5896,6.5946,6.5986,6.6079,6.616,6.6241,6.6298,6.6303,6.6359,6.6332,6.6452,6.6351,6.6514,6.6421,6.6468,6.6485,6.6493,6.6501,6.6388,6.6562,6.6864,6.6894,6.6512,6.6508,6.6505,0,6.581,6.596,6.61,6.6135,6.6198,6.6264,6.6294,6.6345,6.64,6.6471,6.6506,6.6591,6.6637,6.6703,6.6699,6.6626,6.6864,6.6764,6.6869,6.6869,6.692,6.6916,6.7231,6.6955,6.6955,6.6954,6.6954,0,6.606,6.6186,6.6186,6.6272,6.6411,6.6397,6.6535,6.6557,6.6603,6.6691,6.6651,6.6735,6.6726,6.6811,6.6809,6.6943,6.6965,6.697,6.6968,6.6973,6.6971,6.7002,6.6986,6.6962,6.6961,6.6959,6.6958,0,6.6297,6.6302,6.6451,6.6498,6.6512,6.6613,6.6652,6.6733,6.6744,6.6856,6.6882,6.6898,6.6995,6.6998,6.7111,6.7109,6.7271,6.7254,6.7251,6.7247,6.7351,6.734,6.7695,6.7739,6.7437,6.744,6.7442,0,6.6454,6.655,6.6606,6.6662,6.6695,6.6787,6.6841,6.6831,6.6889,6.6961,6.7033,6.7126,6.7199,6.7357,6.7378,6.7463,6.7446,6.7565,6.7459,6.7459,6.7444,6.7437,6.7445,6.7584,6.7588,6.7591,6.7593,0,6.6733,6.673,6.681,6.6892,6.6958,6.7022,6.708,6.7129,6.7124,6.7192,6.729,6.7347,6.7461,6.7553,6.7635,6.7664,6.7628,6.7626,6.7654,6.7659,6.7652,6.7654,6.7305,6.7618,6.7615,6.7613,6.7612,6.7611,6.6932,6.7013,6.7065,6.7155,6.7198,6.7253,6.733,6.735,6.7431,6.7521,6.7511,6.7619,6.7672,6.7778,6.7814,6.7898,6.7857,6.7899,6.7909,6.7919,6.7929,6.7641,6.7914,6.7913,6.7912,6.7912,6.7911,0,6.7205,6.7236,6.7319,6.7401,6.7472,6.7431,6.7493,6.7555,6.7651,6.7703,6.7775,6.7887,6.7975,6.8004,6.8089,6.8151,6.8136,6.8174,6.8167,6.8174,6.7962,6.7928,6.8184,6.8184,6.8184,6.8184,6.8184,6.8184,6.7356,6.7489,6.7493,6.7646,6.7675,6.778,6.7819,6.7869,6.791,6.8036,6.8109,6.8127,6.8169,6.8257,6.8336,6.8341,6.8373,6.8417,6.8416,6.8217,6.819,6.8163,6.8131,6.8425,6.8426,6.8621,6.8623,6.8624]},{"header":{"parameterUnit":"m.s-1","parameterCategory":1,"la1":30.2991,"la2":30.254,"lo1":-89.0895,"lo2":-89.0444,"dy":0.0017,"dx":0.0017,"nx":28,"ny":28,"refTime":"2024-06-26T09:00:00:Z","depth":0,"parameterNumber":3,"parameterNumberName":"V-component_of_WINDS"},"data":[0,0,0,0,0,0,0,0,0,0,0,0,0,0,0,0,0,0,0,0,0,0,0,0,0,0,0,0,0,0,0,0,0,0,0,0,0,0,0,0,0,0,0,0,0,0,0,0,0,0,0,0,0,0,0,0,0,0,1.9521,1.9521,0,1.9554,1.9555,1.9555,1.9517,1.9515,1.9514,1.9513,1.9546,1.9549,1.9551,0,0,0,0,0,0,0,0,0,0,0,0,0,1.9424,1.9426,1.9521,1.9521,1.9522,1.9554,1.9555,1.9555,1.9517,1.9515,1.9513,1.9512,1.9546,1.9548,1.9551,0,0,0,0,0,0,0,0,0,0,0,0,0,1.9462,1.9426,1.9521,1.9507,1.9506,1.9554,1.9555,1.9555,1.9517,1.9515,1.9513,1.9511,1.9545,1.9548,1.9551,1.9615,0,0,1.9562,1.9563,0,0,0,0,0,0,0,0,1.946,1.9466,1.9508,1.9508,1.9507,1.9529,1.9533,1.9575,1.9518,1.9513,1.9512,1.951,1.9542,1.9546,1.9557,1.9617,1.9618,1.9562,1.9564,1.9565,1.9566,0,0,0,0,0,0,0,1.9458,1.9464,1.9534,1.9509,1.9508,1.9498,1.9502,1.9541,1.9539,1.9513,1.9511,1.9515,1.9541,1.9554,1.9557,1.9619,1.9562,1.9565,1.9567,1.9568,1.9733,1.9735,0,0,0,0,0,0,1.9457,1.9462,1.9533,1.9535,1.9478,1.9502,1.9505,1.9524,1.9539,1.9539,1.9517,1.9513,1.9549,1.9553,1.9558,1.9634,1.9565,1.9569,1.957,1.973,1.9733,1.9736,0,0,0,0,0,0,1.9455,1.9463,1.9532,1.9498,1.9506,1.9506,1.9527,1.9526,1.9538,1.9542,1.9541,1.9529,1.9547,1.9554,1.9601,1.9635,1.957,1.9573,1.9727,1.9731,1.9734,1.9786,0,0,0,0,0,0,1.9452,1.9463,1.9487,1.9499,1.9508,1.9575,1.9529,1.9528,1.9544,1.9539,1.9553,1.9554,1.9546,1.9597,1.9605,1.9638,1.9576,1.9724,1.9729,1.9733,1.9782,1.9791,1.9799,0,0,0,0,0,1.9449,1.9501,1.9489,1.9498,1.9539,1.9577,1.9582,1.9572,1.9547,1.9571,1.9573,1.9553,1.963,1.9602,1.9611,1.9646,1.9722,1.9728,1.9733,1.9778,1.9789,1.9799,0,0,0,0,0,0,1.9493,1.9502,1.9489,1.9546,1.9561,1.957,1.9601,1.9585,1.9607,1.9602,1.9589,1.9593,1.9644,1.9649,1.9618,1.9708,1.9672,1.9679,1.9703,1.9714,1.9723,1.972,1.9578,0,0,0,0,0,1.951,1.954,1.9546,1.9596,1.9604,1.9601,1.9617,1.9609,1.9623,1.963,1.9635,1.965,1.9677,1.9696,1.9721,1.9782,1.9784,1.981,1.9819,1.9826,1.9833,1.9866,1.9877,1.9753,1.9753,1.9753,0,0,1.9544,1.9552,1.9572,1.9605,1.9615,1.9647,1.9607,1.9642,1.9665,1.9635,1.968,1.9685,1.9701,1.9755,1.978,1.9762,1.9868,1.9833,1.9839,1.9842,1.9872,1.9884,1.9895,1.9757,1.9756,1.9755,0,0,1.9623,1.9632,1.9675,1.9686,1.9702,1.97,1.971,1.9722,1.9724,1.9769,1.9747,1.9774,1.9822,1.9834,1.9846,1.9929,1.9911,1.9938,1.9984,2.0016,2.0026,2.0035,2.0064,2.0075,1.9944,1.9944,1.9944,0,1.9664,1.971,1.9699,1.9735,1.975,1.9724,1.9767,1.9778,1.9802,1.9813,1.9792,1.9851,1.986,1.9917,1.9937,1.9948,1.9959,1.9936,2.0025,2.0034,2.0042,2.007,2.0081,1.9947,1.9947,1.9947,1.9946,0,1.9759,1.9792,1.9825,1.9848,1.9867,1.9906,1.9901,1.9921,1.991,1.991,1.9956,1.9966,1.9993,2.0006,1.9996,2.0061,2.005,2.0027,1.9991,2.0057,2.0083,2.0094,1.9952,1.9951,1.995,1.9949,0,0,1.9868,1.9884,1.9897,1.9907,1.9923,1.9948,1.9986,2.0012,2.0029,2.0046,2.0078,2.0119,2.0098,2.0112,2.0104,2.0131,2.0197,2.0106,2.0106,2.0123,2.0269,2.0286,2.0299,2.0184,2.0186,2.0188,2.0268,0,1.9947,2.0014,2.0004,2.0068,2.0098,2.0074,2.0107,2.012,2.0121,2.0146,2.0147,2.0176,2.0146,2.0155,2.0181,2.0183,2.0226,2.0177,2.0214,2.0215,2.0212,2.0313,2.0331,2.0406,2.0278,2.028,2.0281,0,2.0049,2.007,2.0137,2.0148,2.016,2.019,2.0213,2.0238,2.0252,2.025,2.0266,2.0252,2.029,2.0252,2.0304,2.0271,2.0286,2.0289,2.0291,2.0295,2.0253,2.032,2.043,2.0442,2.0297,2.0296,2.0295,0,2.0122,2.0166,2.0212,2.0222,2.0235,2.0257,2.0264,2.0276,2.0292,2.0312,2.0323,2.0347,2.036,2.0379,2.0372,2.0345,2.0426,2.0387,2.0426,2.0426,2.0444,2.0444,2.0559,2.0453,2.0453,2.0453,2.0452,0,2.0212,2.0254,2.0245,2.0274,2.032,2.0308,2.0354,2.0358,2.0369,2.0397,2.0377,2.0404,2.0393,2.0419,2.0413,2.0457,2.0463,2.0463,2.0462,2.0466,2.0466,2.0475,2.047,2.0455,2.0455,2.0454,2.0454,0,2.0301,2.0297,2.0346,2.0354,2.0358,2.0391,2.0399,2.0425,2.0424,2.046,2.0468,2.0466,2.0496,2.0491,2.0524,2.052,2.0575,2.0567,2.0571,2.0569,2.0608,2.0604,2.0734,2.0751,2.0633,2.0634,2.0635,0,2.0359,2.0391,2.0403,2.0421,2.0429,2.0458,2.0474,2.0464,2.0482,2.05,2.0524,2.0552,2.0574,2.0623,2.0624,2.0649,2.0642,2.0685,2.0645,2.0648,2.0643,2.0641,2.0644,2.0694,2.0695,2.0696,2.0697,0,2.0462,2.0459,2.0483,2.0507,2.0528,2.0546,2.0562,2.0578,2.0569,2.059,2.062,2.0637,2.0671,2.0699,2.0722,2.0728,2.0711,2.0709,2.072,2.0724,2.0726,2.0726,2.0593,2.0707,2.0706,2.0705,2.0704,2.0704,2.0538,2.0565,2.0578,2.0606,2.0617,2.0633,2.0658,2.066,2.0685,2.0712,2.0704,2.0738,2.0751,2.0781,2.079,2.0816,2.08,2.0815,2.0819,2.0823,2.0828,2.0721,2.0821,2.082,2.082,2.082,2.082,0,2.0641,2.0648,2.0673,2.0697,2.0719,2.0701,2.0718,2.0737,2.0768,2.0782,2.0804,2.0838,2.0865,2.0869,2.0894,2.0915,2.0908,2.0922,2.0921,2.0922,2.0841,2.0829,2.0927,2.0927,2.0927,2.0927,2.0927,2.0927,2.0697,2.0742,2.0739,2.0789,2.0796,2.083,2.0841,2.0855,2.0866,2.0906,2.0928,2.093,2.094,2.0966,2.099,2.099,2.1,2.1018,2.1015,2.0939,2.0928,2.0918,2.0907,2.102,2.102,2.1095,2.1096,2.1096]}]]